Duncan, OK

11:34 AM CST on November 22, 2019 (GMT -0600)
Halliburton

Weather History for KDUC - September, 2019

Change the Weather History Date:

Friday, September 27, 2019

  Actual Average (WUND) Record (WUND)
Temperature  
Mean Temperature 82 °F -  
Max Temperature 93 °F - - (-1)
Min Temperature 72 °F - - (-1)
Cooling Degree Days 18    
Growing Degree Days 32 (Base 50)    
Moisture  
Dew Point 67 °F    
Average Humidity 62    
Maximum Humidity 81    
Minimum Humidity 45    
Precipitation  
Precipitation 0.00 in - - ()
Sea Level Pressure  
Sea Level Pressure 29.77 in    
Wind  
Wind Speed 13 mph (South)    
Max Wind Speed 23 mph    
Max Gust Speed 28 mph    
Visibility 10 miles    
Events      
Averages and records for this station are not official NWS values.
T = Trace of Precipitation, MM = Missing Value Source: NWS Daily Summary

Daily Weather History Graph

Daily Weather History Graph

Search for Another Location

Airport or City:

Astronomy

Sep. 27, 2019 Rise Set
Actual Time 7:23 AM CDT 7:21 PM CDT
Civil Twilight 6:58 AM CDT 7:46 PM CDT
Nautical Twilight 6:29 AM CDT 8:15 PM CDT
Astronomical Twilight 5:59 AM CDT 8:45 PM CDT
Moon 5:53 AM CDT (9/27) 7:08 PM CDT (9/27)
Length of Visible Light 12h 48m
Length of Day
11h 58m
Waning Crescent, 2% of the Moon is Illuminated
Sep 27
Waning Crescent
Sep 28
New
Oct 5
First Quarter
Oct 13
Full
Oct 21
Last Quarter

Hourly Weather History & Observations

Time (CDT) Temp. Heat Index Dew Point Humidity Pressure Visibility Wind Dir Wind Speed Gust Speed Precip Events Conditions
12:15 AM 77.0 °F - 69.1 °F 76% 29.82 in 10.0 mi SSE 10.4 mph - N/A   Clear
12:35 AM 76.6 °F - 68.7 °F 76% 29.81 in 10.0 mi SSE 11.5 mph - N/A   Clear
12:55 AM 76.1 °F - 68.7 °F 78% 29.81 in 10.0 mi SSE 10.4 mph - N/A   Clear
1:15 AM 76.1 °F - 68.2 °F 76% 29.81 in 10.0 mi SSE 10.4 mph - N/A   Clear
1:35 AM 76.3 °F - 67.8 °F 75% 29.81 in 10.0 mi SSE 10.4 mph - N/A   Clear
1:55 AM 75.9 °F - 67.8 °F 76% 29.80 in 10.0 mi SSE 11.5 mph - N/A   Clear
2:35 AM 75.0 °F - 67.6 °F 78% 29.80 in 10.0 mi SSE 11.5 mph - N/A   Clear
2:55 AM 75.0 °F - 67.5 °F 77% 29.80 in 10.0 mi SSE 11.5 mph - N/A   Clear
3:15 AM 74.3 °F - 67.5 °F 79% 29.79 in 10.0 mi South 9.2 mph - N/A   Clear
3:35 AM 73.6 °F - 67.5 °F 81% 29.79 in 10.0 mi South 9.2 mph - N/A   Clear
3:55 AM 73.6 °F - 67.3 °F 81% 29.79 in 10.0 mi South 9.2 mph - N/A   Clear
4:15 AM 73.9 °F - 66.9 °F 79% 29.79 in 10.0 mi South 11.5 mph - N/A   Clear
4:55 AM 73.9 °F - 65.8 °F 76% 29.80 in 10.0 mi South 9.2 mph - N/A   Clear
5:15 AM 73.4 °F - 65.5 °F 76% 29.80 in 10.0 mi South 10.4 mph - N/A   Clear
5:35 AM 72.9 °F - 65.3 °F 77% 29.81 in 10.0 mi South 10.4 mph - N/A   Clear
5:55 AM 72.7 °F - 65.1 °F 77% 29.81 in 10.0 mi South 10.4 mph - N/A   Clear
6:35 AM 72.5 °F - 64.9 °F 77% 29.81 in 10.0 mi South 10.4 mph - N/A   Clear
6:55 AM 72.3 °F - 64.9 °F 78% 29.81 in 10.0 mi South 10.4 mph - N/A   Clear
7:15 AM 72.3 °F - 64.9 °F 78% 29.82 in 10.0 mi South 10.4 mph - N/A   Clear
7:35 AM 72.0 °F - 64.9 °F 78% 29.81 in 10.0 mi South 10.4 mph - N/A   Clear
7:55 AM 72.5 °F - 65.1 °F 78% 29.82 in 10.0 mi South 11.5 mph - N/A   Clear
8:15 AM 73.8 °F - 65.3 °F 75% 29.82 in 10.0 mi South 12.7 mph - N/A   Clear
8:35 AM 75.4 °F - 65.8 °F 72% 29.82 in 10.0 mi South 11.5 mph - N/A   Clear
8:55 AM 77.0 °F - 66.0 °F 69% 29.82 in 10.0 mi South 13.8 mph 18.4 mph N/A   Clear
9:15 AM 78.6 °F - 66.2 °F 66% 29.82 in 10.0 mi South 16.1 mph - N/A   Clear
9:35 AM 80.1 °F 82.3 °F 66.7 °F 64% 29.82 in 10.0 mi South 16.1 mph - N/A   Clear
9:55 AM 81.3 °F 83.8 °F 67.1 °F 62% 29.82 in 10.0 mi South 15.0 mph - N/A   Clear
10:15 AM 82.2 °F 84.7 °F 67.3 °F 60% 29.83 in 10.0 mi South 15.0 mph - N/A   Clear
10:35 AM 83.3 °F 86.2 °F 67.6 °F 59% 29.83 in 10.0 mi SSW 15.0 mph 23.0 mph N/A   Clear
10:55 AM 84.2 °F 87.3 °F 68.2 °F 58% 29.83 in 10.0 mi South 16.1 mph - N/A   Clear
11:15 AM 84.9 °F 88.2 °F 68.2 °F 57% 29.82 in - South 19.6 mph - N/A   Clear
11:35 AM 85.8 °F 90.1 °F 69.3 °F 58% 29.82 in 10.0 mi South 17.3 mph 20.7 mph N/A   Clear
11:55 AM 86.9 °F 91.3 °F 69.4 °F 56% 29.82 in 10.0 mi South 18.4 mph 23.0 mph N/A   Clear
12:15 PM 87.1 °F 91.6 °F 69.6 °F 56% 29.81 in 10.0 mi SSW 12.7 mph 23.0 mph N/A   Clear
12:35 PM 87.8 °F 92.6 °F 70.0 °F 55% 29.81 in 10.0 mi South 16.1 mph 24.2 mph N/A   Clear
12:55 PM 88.5 °F 93.5 °F 69.8 °F 54% 29.80 in 10.0 mi SSW 17.3 mph - N/A   Clear
1:15 PM 89.8 °F 95.6 °F 70.5 °F 53% 29.79 in 10.0 mi SSW 16.1 mph - N/A   Clear
1:35 PM 90.0 °F 95.4 °F 70.3 °F 52% 29.78 in 10.0 mi South 16.1 mph - N/A   Clear
1:55 PM 91.0 °F 97.1 °F 70.9 °F 51% 29.78 in 10.0 mi South 13.8 mph 19.6 mph N/A   Clear
2:15 PM 90.9 °F 96.2 °F 70.2 °F 50% 29.76 in 10.0 mi South 19.6 mph 23.0 mph N/A   Clear
2:35 PM 91.6 °F 97.7 °F 70.5 °F 50% 29.75 in 10.0 mi South 21.9 mph 25.3 mph N/A   Clear
2:55 PM 91.9 °F 97.4 °F 69.8 °F 48% 29.74 in 10.0 mi South 18.4 mph 25.3 mph N/A   Clear
3:15 PM 92.5 °F 97.9 °F 69.6 °F 47% 29.73 in 10.0 mi South 21.9 mph - N/A   Clear
3:35 PM 92.7 °F 98.3 °F 70.0 °F 47% 29.72 in 10.0 mi South 20.7 mph - N/A   Clear
3:55 PM 93.0 °F 97.9 °F 68.7 °F 45% 29.72 in 10.0 mi South 23.0 mph - N/A   Clear
4:15 PM 92.7 °F 97.7 °F 68.9 °F 46% 29.71 in 10.0 mi South 23.0 mph 27.6 mph N/A   Clear
4:35 PM 92.8 °F 97.6 °F 68.5 °F 45% 29.71 in 10.0 mi South 19.6 mph 25.3 mph N/A   Clear
4:55 PM 92.5 °F 96.9 °F 68.5 °F 45% 29.71 in 10.0 mi South 17.3 mph - N/A   Clear
5:15 PM 92.7 °F 97.2 °F 68.2 °F 45% 29.70 in 10.0 mi South 21.9 mph - N/A   Clear
5:35 PM 92.3 °F 96.5 °F 68.2 °F 45% 29.70 in 10.0 mi South 17.3 mph - N/A   Clear
5:55 PM 91.4 °F 95.4 °F 68.2 °F 46% 29.70 in 10.0 mi SSE 12.7 mph - N/A   Clear
6:15 PM 90.7 °F 94.5 °F 67.6 °F 47% 29.70 in 10.0 mi SSE 15.0 mph - N/A   Clear
6:35 PM 89.6 °F 92.6 °F 66.9 °F 47% 29.71 in 10.0 mi SSE 13.8 mph 23.0 mph N/A   Clear
6:55 PM 88.2 °F 90.9 °F 66.7 °F 49% 29.71 in 10.0 mi SSE 13.8 mph - N/A   Clear
7:15 PM 86.2 °F 89.4 °F 67.8 °F 54% 29.71 in 10.0 mi SE 11.5 mph - N/A   Clear
7:35 PM 84.9 °F 88.2 °F 68.4 °F 57% 29.72 in - SSE 13.8 mph - N/A   Clear
7:55 PM 84.9 °F 87.6 °F 67.3 °F 55% 29.72 in 10.0 mi SSE 12.7 mph - N/A   Clear
8:15 PM 83.7 °F 86.2 °F 66.7 °F 57% 29.72 in 10.0 mi SSE 13.8 mph 18.4 mph N/A   Clear
8:35 PM 83.1 °F 85.2 °F 66.0 °F 56% 29.73 in 10.0 mi SSE 12.7 mph - N/A   Clear
8:55 PM 81.9 °F 83.7 °F 65.5 °F 57% 29.74 in 10.0 mi SSE 12.7 mph - N/A   Clear
9:15 PM 81.1 °F 82.8 °F 64.6 °F 57% 29.75 in 10.0 mi SSE 10.4 mph - N/A   Clear
9:35 PM 80.2 °F 81.8 °F 63.9 °F 57% 29.75 in 10.0 mi SSE 11.5 mph - N/A   Clear
9:55 PM 79.7 °F - 63.3 °F 57% 29.75 in 10.0 mi SSE 11.5 mph - N/A   Clear
10:15 PM 79.5 °F - 62.6 °F 56% 29.75 in 10.0 mi SSE 12.7 mph - N/A   Clear
10:35 PM 78.4 °F - 62.4 °F 58% 29.76 in 10.0 mi SSE 11.5 mph - N/A   Clear
10:55 PM 78.4 °F - 62.1 °F 57% 29.75 in 10.0 mi SSE 13.8 mph - N/A   Clear
11:15 PM 78.1 °F - 63.0 °F 60% 29.75 in 10.0 mi SSE 13.8 mph - N/A   Clear
11:35 PM 77.9 °F - 63.7 °F 61% 29.75 in 10.0 mi SSE 12.7 mph - N/A   Clear
11:55 PM 77.7 °F - 64.2 °F 63% 29.76 in 10.0 mi SSE 12.7 mph - N/A   Clear